Total_Precipitation_Accumulation
0.02 0.06 0.20 0.41 0.95 1.31 1.16 0.71 0.52 0.50 0.55 0.54 0.48 0.44 0.47 0.44 0.58 1.07 0.70 0.39 0.17 0.06 0.04 0.10 0.17 0.15 0.13 0.13 0.14 0.14 0.14 0.14 0.14 0.13 0.10 0.09 0.08 0.08 0.09 0.09 0.11 0.13 0.14 0.16 0.19 0.15 0.15 0.17 0.18
0.03 0.11 0.29 0.80 1.24 1.23 1.09 0.61 0.35 0.44 0.53 0.66 0.65 0.51 0.41 0.41 0.41 0.34 0.31 0.44 0.16 0.08 0.06 0.06 0.13 0.14 0.12 0.11 0.13 0.14 0.13 0.12 0.12 0.11 0.09 0.09 0.09 0.11 0.12 0.12 0.12 0.14 0.15 0.16 0.16 0.14 0.15 0.15 0.18
0.05 0.15 0.35 0.78 0.88 0.81 0.80 0.48 0.36 0.32 0.49 0.73 0.70 0.47 0.46 0.48 0.39 0.27 0.26 0.36 0.18 0.13 0.07 0.07 0.13 0.13 0.12 0.13 0.13 0.13 0.13 0.12 0.11 0.11 0.10 0.10 0.12 0.15 0.16 0.16 0.16 0.16 0.18 0.19 0.17 0.15 0.15 0.15 0.19
0.07 0.20 0.44 0.52 0.36 0.28 0.37 0.42 0.44 0.43 0.63 0.76 0.62 0.52 0.50 0.48 0.42 0.29 0.26 0.37 0.23 0.19 0.12 0.11 0.15 0.16 0.14 0.14 0.12 0.14 0.14 0.13 0.13 0.12 0.12 0.13 0.15 0.17 0.16 0.17 0.19 0.20 0.20 0.19 0.18 0.17 0.17 0.21 0.25
0.06 0.22 0.48 0.37 0.22 0.17 0.20 0.25 0.34 0.51 0.70 0.82 0.69 0.66 0.68 0.47 0.39 0.33 0.26 0.38 0.36 0.28 0.23 0.21 0.22 0.21 0.17 0.15 0.15 0.16 0.16 0.15 0.14 0.12 0.13 0.15 0.17 0.17 0.17 0.17 0.18 0.19 0.22 0.22 0.23 0.24 0.23 0.27 0.31
0.06 0.18 0.33 0.21 0.11 0.11 0.16 0.21 0.36 0.55 0.60 0.68 0.78 0.85 0.80 0.54 0.45 0.39 0.37 0.46 0.49 0.41 0.29 0.34 0.32 0.27 0.22 0.20 0.20 0.19 0.18 0.17 0.17 0.16 0.17 0.19 0.22 0.21 0.20 0.21 0.20 0.19 0.20 0.22 0.26 0.29 0.29 0.31 0.36
0.05 0.10 0.14 0.12 0.07 0.08 0.17 0.28 0.33 0.46 0.55 0.75 0.80 0.83 0.87 0.74 0.59 0.49 0.60 0.84 0.82 0.64 0.46 0.45 0.39 0.32 0.28 0.28 0.29 0.28 0.25 0.23 0.22 0.20 0.20 0.21 0.26 0.26 0.26 0.32 0.29 0.26 0.28 0.28 0.30 0.32 0.41 0.41 0.41
0.03 0.08 0.12 0.10 0.05 0.08 0.16 0.23 0.33 0.45 0.58 0.65 0.76 0.88 0.89 0.78 0.67 0.71 0.89 1.23 1.35 1.20 0.87 0.58 0.50 0.49 0.41 0.35 0.36 0.36 0.30 0.28 0.28 0.28 0.27 0.29 0.34 0.37 0.42 0.43 0.43 0.41 0.43 0.43 0.42 0.40 0.46 0.53 0.53
0.01 0.06 0.10 0.08 0.06 0.10 0.18 0.23 0.29 0.33 0.43 0.65 0.85 1.01 0.90 0.71 0.73 0.92 1.11 1.37 1.54 1.36 1.13 0.90 0.80 0.67 0.59 0.53 0.43 0.47 0.43 0.41 0.41 0.50 0.50 0.55 0.65 0.67 0.73 0.66 0.68 0.67 0.69 0.75 0.77 0.73 0.77 0.80 0.76
0.01 0.03 0.04 0.03 0.03 0.04 0.11 0.20 0.26 0.37 0.62 1.11 1.36 1.23 0.97 0.83 0.92 1.16 1.31 1.30 1.37 1.38 1.27 1.25 1.09 0.96 0.90 0.82 0.80 0.85 0.80 0.80 0.80 0.95 0.97 1.12 1.23 1.05 0.80 0.92 1.08 1.04 1.14 1.22 1.32 1.50 1.38 1.25 1.07
0.00 0.01 0.02 0.02 0.02 0.02 0.05 0.13 0.23 0.41 0.83 1.37 1.60 1.29 1.10 1.04 1.10 1.24 1.54 1.61 1.69 1.68 1.50 1.54 1.40 1.25 1.26 1.27 1.23 1.25 1.31 1.36 1.41 1.43 1.49 1.71 1.65 1.34 1.13 1.27 1.53 1.52 1.57 1.61 1.85 2.06 1.69 1.66 1.68
0.00 0.00 0.00 0.00 0.01 0.01 0.04 0.11 0.29 0.56 0.96 1.25 1.18 1.03 1.03 1.20 1.30 1.45 1.73 2.04 2.10 2.18 2.05 1.82 1.73 1.83 1.78 1.62 1.57 1.43 1.31 1.31 1.39 1.50 1.55 1.86 1.94 1.86 1.77 1.77 1.67 1.83 1.96 2.21 2.21 2.22 2.10 2.10 1.96
0.00 0.00 0.00 0.00 0.01 0.03 0.06 0.13 0.33 0.65 0.87 0.94 0.81 0.85 1.11 1.37 1.48 1.86 2.33 2.46 2.38 2.57 2.70 2.51 2.45 2.35 2.12 2.03 1.68 1.46 1.37 1.24 1.18 1.37 1.54 1.80 1.98 2.04 2.12 1.83 1.73 1.68 1.84 2.09 2.08 1.95 2.06 2.20 2.20
0.00 0.00 0.01 0.01 0.02 0.04 0.07 0.14 0.33 0.57 0.67 0.68 0.76 0.98 1.16 1.51 1.67 2.16 2.74 2.83 2.94 3.15 3.30 3.20 3.14 2.86 2.52 2.22 1.95 1.81 1.56 1.38 1.20 1.29 1.33 1.69 1.99 1.96 1.83 1.82 1.81 1.71 1.82 1.88 1.92 1.97 2.17 2.27 2.37
0.00 0.01 0.06 0.07 0.05 0.06 0.07 0.19 0.40 0.60 0.71 0.67 0.85 1.01 1.34 1.71 1.94 2.31 2.59 2.94 3.35 3.72 3.76 3.67 3.64 3.43 3.21 2.94 2.52 2.12 1.89 1.60 1.51 1.41 1.31 1.58 1.84 1.89 1.84 1.77 1.64 1.67 1.75 1.84 1.88 1.92 2.04 1.95 2.02
0.02 0.05 0.16 0.16 0.10 0.10 0.11 0.39 0.69 0.69 0.69 0.73 0.90 1.23 1.50 1.76 2.15 2.36 2.66 2.96 3.33 3.84 4.19 4.22 3.70 3.58 3.49 3.34 2.97 2.55 2.35 2.16 1.95 1.59 1.40 1.41 1.56 1.64 1.64 1.50 1.47 1.56 1.45 1.46 1.54 1.51 1.57 1.62 1.75
0.05 0.09 0.16 0.25 0.16 0.13 0.24 0.71 1.00 0.76 0.61 0.73 1.01 1.34 1.71 1.89 2.28 2.40 2.54 2.75 3.19 4.02 4.84 4.81 4.26 3.80 3.51 3.37 3.25 3.02 2.71 2.32 1.99 1.69 1.50 1.33 1.24 1.11 1.13 1.09 1.13 1.16 1.15 1.14 1.07 1.26 1.32 1.42 1.53
0.05 0.10 0.22 0.35 0.22 0.20 0.30 0.67 0.70 0.63 0.79 0.78 0.87 1.10 1.42 1.53 1.80 2.07 2.33 2.76 3.49 4.58 5.36 5.28 4.65 4.07 3.68 3.41 3.16 2.94 2.57 2.25 1.89 1.70 1.48 1.19 1.09 0.94 0.88 0.86 0.87 0.82 0.86 0.92 0.95 1.03 1.06 1.08 1.13
0.04 0.09 0.22 0.26 0.20 0.28 0.36 0.56 0.66 0.77 0.95 0.94 0.81 0.85 1.14 1.35 1.61 1.96 2.52 3.31 4.33 5.18 5.45 4.93 4.37 3.92 3.47 3.02 2.41 1.95 1.75 1.61 1.43 1.22 0.97 0.84 0.78 0.79 0.80 0.70 0.68 0.63 0.65 0.66 0.66 0.73 0.77 0.78 0.83
0.06 0.08 0.19 0.26 0.18 0.21 0.35 0.66 0.94 0.91 0.84 0.81 0.83 0.79 0.94 1.32 1.77 2.37 3.34 3.97 4.19 4.24 3.92 3.52 3.19 2.91 2.48 2.06 1.74 1.51 1.38 1.19 1.02 0.91 0.82 0.66 0.60 0.60 0.57 0.58 0.54 0.53 0.56 0.58 0.58 0.59 0.59 0.60 0.64
0.10 0.10 0.18 0.25 0.15 0.16 0.36 0.80 1.06 1.07 0.84 0.70 0.67 0.62 0.87 1.31 1.88 2.67 3.23 3.31 3.00 2.58 2.36 2.33 2.32 1.97 1.82 1.74 1.60 1.49 1.40 1.18 0.96 0.82 0.72 0.57 0.46 0.45 0.46 0.46 0.47 0.50 0.49 0.52 0.55 0.51 0.51 0.51 0.50
0.09 0.06 0.06 0.09 0.15 0.33 0.52 1.02 1.17 0.96 0.89 0.73 0.68 0.65 0.77 1.06 1.37 1.82 2.05 1.90 1.86 1.87 1.89 2.04 2.07 1.76 1.67 1.56 1.29 1.08 0.96 0.87 0.74 0.66 0.65 0.64 0.51 0.42 0.39 0.39 0.38 0.38 0.41 0.50 0.45 0.47 0.49 0.49 0.42
0.04 0.03 0.04 0.11 0.22 0.41 0.60 0.84 0.95 0.74 0.87 0.69 0.55 0.55 0.57 0.75 0.83 0.93 1.03 1.05 1.15 1.24 1.44 1.72 1.88 1.81 1.62 1.43 1.28 1.16 0.98 0.93 0.88 0.83 0.81 0.74 0.64 0.51 0.43 0.44 0.40 0.36 0.33 0.36 0.38 0.48 0.50 0.49 0.42
0.03 0.05 0.12 0.23 0.39 0.89 0.84 0.81 1.01 0.91 0.89 0.67 0.49 0.43 0.47 0.62 0.68 0.71 0.70 0.77 0.88 0.99 1.15 1.38 1.61 1.73 1.68 1.50 1.33 1.22 1.11 1.03 0.93 0.88 0.84 0.72 0.63 0.58 0.50 0.47 0.45 0.40 0.34 0.32 0.31 0.38 0.44 0.50 0.50
0.05 0.07 0.24 0.57 0.98 1.13 0.70 0.78 1.04 0.77 0.67 0.50 0.30 0.26 0.38 0.57 0.68 0.70 0.64 0.56 0.56 0.68 0.83 0.91 1.06 1.28 1.38 1.35 1.21 1.14 1.15 1.00 0.82 0.75 0.70 0.67 0.58 0.50 0.45 0.43 0.43 0.38 0.36 0.36 0.35 0.35 0.39 0.44 0.49
0.05 0.04 0.11 0.22 0.33 0.51 0.66 1.04 1.16 0.81 0.54 0.30 0.18 0.21 0.33 0.46 0.47 0.47 0.43 0.36 0.31 0.37 0.54 0.66 0.83 1.00 1.18 1.17 1.06 0.96 0.97 0.86 0.74 0.77 0.64 0.59 0.56 0.53 0.51 0.46 0.40 0.37 0.38 0.37 0.41 0.37 0.34 0.36 0.40
0.05 0.03 0.04 0.07 0.12 0.31 0.66 0.95 0.90 0.69 0.48 0.30 0.21 0.18 0.18 0.22 0.25 0.30 0.32 0.30 0.26 0.28 0.38 0.52 0.71 0.87 1.03 1.12 1.07 0.94 0.89 0.81 0.75 0.74 0.68 0.57 0.62 0.60 0.63 0.53 0.43 0.44 0.46 0.47 0.47 0.41 0.39 0.39 0.39
0.05 0.04 0.04 0.05 0.11 0.23 0.49 0.87 1.03 0.85 0.57 0.33 0.26 0.21 0.19 0.22 0.21 0.23 0.23 0.25 0.22 0.22 0.28 0.40 0.56 0.75 0.86 0.96 0.94 0.85 0.94 0.85 0.80 0.76 0.71 0.65 0.60 0.59 0.63 0.57 0.47 0.48 0.49 0.50 0.52 0.46 0.48 0.50 0.51
0.07 0.06 0.06 0.05 0.08 0.14 0.33 0.54 0.50 0.44 0.35 0.28 0.29 0.25 0.17 0.17 0.14 0.15 0.17 0.20 0.20 0.19 0.21 0.26 0.37 0.52 0.64 0.69 0.72 0.73 0.80 0.80 0.79 0.78 0.74 0.69 0.64 0.65 0.62 0.58 0.53 0.50 0.49 0.51 0.54 0.55 0.54 0.53 0.57
0.09 0.09 0.09 0.08 0.08 0.09 0.16 0.33 0.29 0.30 0.29 0.25 0.30 0.24 0.16 0.14 0.11 0.11 0.13 0.17 0.18 0.19 0.19 0.22 0.27 0.34 0.45 0.48 0.51 0.55 0.64 0.68 0.67 0.65 0.69 0.73 0.68 0.65 0.64 0.62 0.57 0.49 0.47 0.53 0.57 0.58 0.58 0.59 0.59